YAOGAN-28

Last updated on Wed Sep 23 2026 00:03:15 GMT+0000 (Coordinated Universal Time)

1 41026U 15064A 26265.63795421 .00005377 00000+0 19617-3 0 9995 2 41026 97.3205 42.0729 0009834 198.0405 162.0487 15.28522512605569
UTC large
Height (km)
Speed (km/s)
/
Latitude / Longitude
Inclination (degrees)
Orbital Period (minutes)
Azimuth
Elevation
Range (km)
Doppler Factor

Next 0 passes for location: London (51.5072 / 0.1276)

No passes found over London.
YAOGAN-28